Regional Weather Roundup
Issued by NWS

Home | Current Version | Previous Version | Text Only | Print | Product List | Glossary On
Versions: 1 2 3 4 5 6 7 8 9 10 11 12 13 14 15 16 17 18 19 20 21 22 23 24 25 26 27 28 29 30 31 32 33 34 35 36 37 38 39 40 41 42 43 44 45 46 47 48 49 50
000
ASUS43 KBIS 231802
RWRND

NORTH DAKOTA REGIONAL WEATHER ROUNDUP
NATIONAL WEATHER SERVICE BISMARCK ND
100 PM CDT SUN APR 23 2017

NOTE: "FAIR" INDICATES FEW OR NO CLOUDS BELOW 12,000 FEET WITH NO
SIGNIFICANT WEATHER AND/OR OBSTRUCTIONS TO VISIBILITY.


NDZ001>003-009>011-017-231900-
NORTHWEST NORTH DAKOTA

CITY           SKY/WX    TMP DP  RH WIND       PRES   REMARKS
WILLISTON      CLOUDY    31  26  82 E17       30.00F WCI  19
6HR MIN TEMP:  31; 6HR MAX TEMP:  33;

MINOT          LGT SNOW  32  28  85 E21       30.05F FOG     WCI  20
MINOT AFB      MIX PCPN  31  28  92 E22       30.05F FOG     WCI  18
$$

NDZ018>021-031>035-040>046-231900-
SOUTHWEST NORTH DAKOTA

CITY           SKY/WX    TMP DP  RH WIND       PRES   REMARKS
BISMARCK       CLOUDY    39  32  76 E22       29.97F
6HR MIN TEMP:  32; 6HR MAX TEMP:  40;

DICKINSON      CLOUDY    33  28  81 E14       29.88F
GARRISON         N/A     29  27  92 E21G30    29.99F WCI  16
6HR MIN TEMP:  26; 6HR MAX TEMP:  29;

HETTINGER ARPT CLOUDY    37  33  85 E13       29.87F
$$

NDZ004>008-012>016-024-026-027-054-231900-
NORTHEAST NORTH DAKOTA

CITY           SKY/WX    TMP DP  RH WIND       PRES   REMARKS
GRAND FORKS    CLOUDY    36  20  52 E17       30.16F
GRND FRKS AFB  CLOUDY    33  26  76 SE14      30.15F
DEVILS LAKE    LGT SNOW  29  27  92 E20       30.13S VSB 1   WCI  16
$$

NDZ022-023-025-028>030-036>039-047>053-231900-
SOUTHEAST NORTH DAKOTA

CITY           SKY/WX    TMP DP  RH WIND       PRES   REMARKS
FARGO          CLOUDY    40  32  73 E22       30.08F
6HR MIN TEMP:  34; 6HR MAX TEMP:  41; 6HR PCP:  0.01;

JAMESTOWN      CLOUDY    35  31  85 E21G32    30.03F
$$




USA.gov is the U.S. government's official web portal to all federal, state and local government web resources and services.